Other Public Products
Issued by NWS Grand Forks, ND

Home | Current Version | Previous Version | Graphics & Text | Print | Product List | Glossary On
Versions: 1 2 3 4 5 6 7 8 9 10 11 12 13 14 15 16 17 18 19 20 21 22 23 24 25 26 27 28 29 30 31 32 33 34 35 36 37 38 39 40 41 42 43 44 45 46 47 48 49 50
000
FPUS83 KFGF 141410
OPUFGF
PRAIRIE TO PINES WEATHER ROUNDUP
NATIONAL WEATHER SERVICE EASTERN NORTH DAKOTA/GRAND FORKS ND
800 AM CST THU DEC 14 2017

 **SATELLITE DATA USED TO AUGMENT SKY COVER AT AUTOMATED STATIONS**
 *****  WEATHER ACROSS EASTERN NORTH DAKOTA  *****

CITY           SKY/WX    TMP DP  RH WIND       PRES   REMARKS
GRAND FORKS    CLOUDY    22  19  89 NW8       30.03R WCI  12
GRND FORKS AFB FLURRIES  23  18  80 N8        30.02S WCI  14
GRND FORKS NWS   N/A     21 N/A N/A NW2         N/A
BUXTON         NOT AVBL
DEVILS LAKE    CLOUDY    22  21  96 N9        30.03R WCI  12
FARGO          CLOUDY    20  17  88 W5        30.02R WCI  13
WAHPETON ARPT    N/A     19  18  93 CALM      30.03R
$$

 *****  WEATHER ACROSS CENTRAL AND WESTERN NORTH DAKOTA  *****

CITY           SKY/WX    TMP DP  RH WIND       PRES   REMARKS
JAMESTOWN      CLOUDY    27  26  96 CALM      29.97S
BISMARCK       CLOUDY    34  30  85 N17G23    30.04R WCI  23
MINOT          CLOUDY    32  24  72 NW13      30.07R WCI  22
MINOT AFB      CLOUDY    31  24  75 N13       30.07R WCI  21
GARRISON         N/A     32  28  85 N21       30.06R WCI  20
WILLISTON      CLOUDY    33  25  72 N12       30.19R WCI  24
DICKINSON      LGT SNOW  31  28  89 NW18      30.08R FOG     WCI  19
HETTINGER      CLOUDY    32  26  78 NW25G33   30.09R WCI  19
$$

 *****  OTHER OBSERVATIONS NORTHEAST NORTH DAKOTA  *****

CITY           SKY/WX    TMP DP  RH WIND       PRES   REMARKS
WALHALLA       FAIR      21  21 100 N21       30.04R WCI   6
LANGDON        CLOUDY    21  21 100 NW14      30.01R WCI   8
CAVALIER       CLOUDY    21  18  86 N18G26    30.03R WCI   6
GRAFTON        PTSUNNY   21  19  93 NW10      30.04S WCI  10
CANDO          CLOUDY    23  23 100 N9        30.05R WCI  13
FORT TOTTEN      N/A     22  20  94 NE3       29.95S
ROLLA          PTSUNNY   23  23 100 N14       30.02R WCI  11
RUGBY          CLOUDY    28  25  86 N16       30.03R WCI  17
 ***** THE ABOVE OBSERVATIONS ARE NON NWS ARE NOT QUALITY
        CONTROLLED AND MAY MIS-REPORT RAIN FOR SNOW...
$$

 *****  OTHER OBSERVATIONS SOUTHEAST NORTH DAKOTA *****

CITY           SKY/WX    TMP DP  RH WIND       PRES   REMARKS
COOPERSTOWN    CLOUDY    23  23 100 N7        30.01R FOG     WCI  15
VALLEY CITY    CLOUDY    23  23 100 CALM      30.01R
OAKES            N/A     27  27 100 S6        29.99S WCI  20
GWINNER          N/A     23  23 100 CALM      30.00R
SHEYENNE NWR     N/A     22  19  89 W2        29.95S
BUFFALO        NOT AVBL
WYNDMERE       NOT AVBL
 ***** THE ABOVE OBSERVATIONS ARE NON NWS ARE NOT QUALITY
       CONTROLLED AND MAY MIS-REPORT RAIN FOR SNOW...
$$

  *****  WEATHER ACROSS NORTHERN MINNESOTA  *****

CITY           SKY/WX    TMP DP  RH WIND       PRES   REMARKS
FLAG ISLAND    CLOUDY     7   5  92 CALM      29.95S
WARROAD        FLURRIES  10   7  85 W6        29.97R WCI   1
ROSEAU         FAIR      12   9  85 NW7       29.98R WCI   2
HALLOCK        CLOUDY    19  16  86 NW12      30.01S WCI   7
THF RVR FALLS  FLURRIES  15  13  91 W8        30.00R WCI   4
HALSTAD        NOT AVBL
FOSSTON        CLOUDY    12  12 100 W7        29.98S WCI   2
BAUDETTE       LGT SNOW  11   8  88 W3        29.94S FOG
WASKISH        LGT SNOW  14  12  92 W7        29.95S WCI   4
CROOKSTON      CLOUDY    18  16  93 NW7       30.02S WCI   8
$$
  *****  WEATHER ACROSS CENTRAL AND WEST MINNESOTA  *****

CITY           SKY/WX    TMP DP  RH WIND       PRES   REMARKS
BEMIDJI        LGT SNOW  13  10  90 W5        29.95F WCI   5
PARK RAPIDS    LGT SNOW  14  10  84 NW7       29.95R FOG     WCI   4
WADENA         FLURRIES  12  10  92 NW5       29.98R WCI   4
DETROIT LAKES  CLOUDY    18  16  93 NW6       29.99S WCI   9
MOORHEAD       MIX PCPN  19  16  86 CALM      30.03S
FERGUS FALLS   CLOUDY    18  16  93 NW3       30.05R
ELBOW LAKE     CLOUDY    17  16  94 W6        30.01S WCI   9
MORRIS MN      CLOUDY    19  18  93 N7        30.00S WCI  10
STAPLES        CLOUDY    12  10  92 CALM      29.98S
WHEATON        CLOUDY    21  18  86 CALM      30.04S
$$
  *****  WEATHER ELSEWHERE ACROSS MINNESOTA  *****

CITY           SKY/WX    TMP DP  RH WIND       PRES   REMARKS
DULUTH         FLURRIES  14  12  92 NW9       29.93R WCI   2
INTRNTL FALLS  LGT SNOW  11   7  84 CALM      29.94S FOG
ELY            FLURRIES  12  10  92 W7        29.92S WCI   2
CLOQUET        FLURRIES  14  10  85 W7        29.95S WCI   4
BRAINERD       CLOUDY    16  12  84 W5        29.98R WCI   9
HIBBING        LGT SNOW  12   9  87 W3        29.94S FOG
ALEXANDRIA     CLOUDY    15  14  95 NW13      29.99R WCI   1
SAINT CLOUD    CLOUDY    17  14  88 SW3       30.00S
MINNEAPOLIS    MOCLDY    16  12  84 CALM      30.03S
$$

  *****  WEATHER ACROSS SOUTH DAKOTA  *****

CITY           SKY/WX    TMP DP  RH WIND       PRES   REMARKS
SIOUX FALLS    CLOUDY    28  26  92 S3        30.01R
BROOKINGS      CLOUDY    27  25  92 CALM      29.99R
WATERTOWN      CLOUDY    27  26  96 NW3       29.97R
HURON          CLOUDY    30  26  85 W7        30.00F WCI  23
SISSETON         N/A     22  19  89 SE3       30.00S
ABERDEEN       CLOUDY    27  27 100 SW3       30.00F
MITCHELL       CLOUDY    30  25  81 W5        30.02S
PIERRE         LGT RAIN  35  33  92 NW18G30   30.02R WCI  24
MOBRIDGE       CLOUDY    35  30  82 NW14      30.00R
RAPID CITY     CLOUDY    34  24  67 NW26G38   30.12R WCI  21
$$

  *****  SOME WEATHER IN NEARBY STATES *****

CITY           SKY/WX    TMP DP  RH WIND       PRES   REMARKS
GLASGOW MT     CLOUDY    33  26  75 NW14      30.26R WCI  23
GREAT FALLS MT FAIR      26  21  81 SW14      30.35F WCI  14
CHEYENNE WY    CLOUDY    29  23  78 NW13      30.15R WCI  19
SCOTTSBLUFF NE CLOUDY    36  24  62 NW18G25   30.14R
OMAHA NE       CLOUDY    34  26  72 CALM      30.06R
DES MOINES IA  CLOUDY    26  17  68 NE6       30.07R WCI  19
DAVENPORT IA   CLOUDY    22  14  71 CALM      30.09R
CHICAGO IL     FAIR      17   9  70 N13       30.02R WCI   4
EAU CLAIRE WI  CLOUDY    13  10  88 SW3       30.02R
LA CROSSE WI   FAIR       9   5  84 CALM      30.07R
$$

  *****  SOME NATIONAL WEATHER *****

CITY           SKY/WX    TMP DP  RH WIND       PRES   REMARKS
LA GUARDIA NY  CLOUDY    28  23  81 N13       29.64R WCI  17
RALEIGH NC     FAIR      38  23  55 SW7       29.81R
ATLANTA GA     FAIR      42  31  64 W8        29.91R
NEW ORLEANS LA PTSUNNY   47  46  97 CALM      30.01R
OKLAHOMA CITY  MOCLDY    41  28  60 NE10      30.10R
ALBUQUERQUE NM MOCLDY    36   8  31 E13       30.06R
SALT LAKE CITY FAIR      27  24  89 CALM      30.40R
LOS ANGELES CA FAIR      50  33  52 VRB3      29.98R
BOISE ID       LGT SNOW  25  22  88 S5        30.54R FOG     WCI  19
SEATTLE WA     MOCLDY    41  36  82 NE7       30.32F
$$

*** WEATHER ACROSS MANITOBA...SASKATCHEWAN AND ONTARIO ***
                ***ONTARIO***

CITY           SKY/WX    TMP DP  RH WIND       PRES   REMARKS
GERALDTON      MOCLDY    -9 -15  77 W5        29.87R WCI -21
THUNDER BAY    CLOUDY    -4  -8  84 SW6       29.98S WCI -16
SIOUX LOOKOUT  CLOUDY    -2  -8  78 CALM      29.89F
TORONTO        PTCLDY     5  -2  72 NW8       29.85R WCI  -8
BIG TROUT LK   CLOUDY    -9 -15  77 W2        29.86F
PICKLE LAKE    MOCLDY    -4  -9  77 W5        29.84F WCI -15
DRYDEN         FLURRIES   1  -2  85 SW3       29.90R
KENORA         CRYSTALS   7   3  85 W6        29.92R WCI  -3
$$
                *** MANITOBA***

CITY           SKY/WX    TMP DP  RH WIND       PRES   REMARKS
BRANDON        CLOUDY    23  19  86 N7        30.06R WCI  15
DAUPHIN        FLURRIES  19  18  93 W5        30.07F WCI  13
ISLAND LAKE    NOT AVBL
PILOT MOUND      N/A     19  18  93 NW9         N/A  WCI   9
THE PAS        CLOUDY    16  10  79 NW9       30.08R WCI   4
THOMPSON       FLURRIES   0  -4  85 NW5       30.03R WCI -10
WINNIPEG       FLURRIES  14   7  73 N14       30.05R WCI  -1
LYNN LAKE      CLOUDY     5   3  92 N14       30.08R WCI -12
CHURCHILL      LGT SNOW  -9 -13  84 NW20G26   30.05F DRFTSNOWWCI -34
GILLAM         FLURRIES  -6  -9  84 N15       30.03R WCI -27
$$
                ***SASKATCHEWAN***

CITY           SKY/WX    TMP DP  RH WIND       PRES   REMARKS
ESTEVAN        CLOUDY    28  23  80 NW13      30.14R WCI  18
KINDERSLEY     PTCLDY    21  19  93 W6        30.25S WCI  14
LLOYDMINSTER   PTCLDY    21  19  93 W12       30.21S WCI   9
PRINCE ALBERT  FLURRIES  32  23  69 N13G18    30.13R WCI  22
REGINA         MOCLDY    28  25  86 NW9       30.15F WCI  20
YORKTON        FLURRIES  27  23  86 W10       30.06F WC



USA.gov is the U.S. government's official web portal to all federal, state and local government web resources and services.